STARLINK-2196, 47773

Orbit data source: Space-Track

STARLINK-2196, 47773 is a payload satellite owned by SpaceX/Seattle (US) in LEO that was launched on Thu, 04 Mar 2021 UTC via an FALCON 9 launch vehicle from the Air Force Eastern Test Range (AFETR). Payload-class satellites include a variety of spacecraft equipped with specific instruments for various scientific and technological missions. These include communications satellites like Starlink; space stations such as the ISS; scientific satellites like the Hubble; Earth observation satellites from companies like Planet Labs, Umbra, and HawkEye 360; GPS; miniature CubeSats for education and research; and military/defense satellites.

Loading next visibility...
Identifier
47773, 2021-017BD
Orbit
LEO
Country
Flag of USUS
Related business
Manufacturer
SpaceX/Seattle
Mission
Operational Commercial Communications
Bus & Motor
STARLINK, Unknown motor
Mass
260 kg wet, ~248 kg dry
Launch date (UTC)
2021-03-04 (5 years ago)
Launch vehicle
FALCON 9
Launch site
Air Force Eastern Test Range (AFETR)
Object type
Payload
Rocket body
Debris
Shape & HBR
Box + 1 Pan, 10.1 m
Radar Cross Section
13.562 m², Large (>1 m²)

Expand to show TLE details & history
Last TLE update: 22 hours ago

TLE from 22 hours ago
0 STARLINK-2196
1 47773U 21017BD  25348.89377843  .00005347  00000-0  37739-3 0  9991
2 47773  53.0532 242.2802 0001395  91.6185 268.4963 15.06421734264807
Epoch: 2025-12-14T21:27Z
TLE epoch observation values (Epoch: 2025-12-14T21:27:02.456Z)
Latitude
-0.00008°
Longitude
-163.28025°
Altitude
548.049 km
Speed
7.589 km/s
True Right ascension
16h 09m 07s
True Declination
0° 00' 00"
Sunlit
Object was in daylight at epoch
Visualization orbit readout
Latitude
Unknown
Longitude
Unknown
Altitude
Unknown
Speed
Unknown
Apparent Right ascension
Unknown
Apparent Declination
Unknown
Sunlit
N/A
Visualization observer readout
Local Sidereal Time
18:10:34
Azimuth
Unknown
Elevation
Unknown
Doppler factor
Unknown
Orbital elements
Apogee altitude
548.382 km
Perigee altitude
546.45 km
Semi-major axis
6,925.553 km
Eccentricity
0.00014
Inclination
53.0532°
RAAN
242.2802°
Arg. of periapsis
91.6185°
True anomaly
268.48032°
Mean anomaly
268.4963°
Eccentric anomaly
268.48831°
Mean motion
3.76584 °/min
Orbital period
95.6 mins
BSTAR
0.00037739
Loading maneuver chart data...
Computing Atmospheric mass density...
Loading historical data...
Loading historical data...
Loading historical data...
Loading historical data...
Loading historical data...
Loading historical data...
Loading historical data...

Documentation

Showing up to 5 results
|